Regional Weather Roundup
Issued by NWS

Home | Current Version | Previous Version | Text Only | Print | Product List | Glossary On
Versions: 1 2 3 4 5 6 7 8 9 10 11 12 13 14 15 16 17 18 19 20 21 22 23 24 25 26 27 28 29 30 31 32 33 34 35 36 37 38 39 40 41 42 43 44 45 46 47 48 49 50
770
ASUS44 KLIX 242105
RWRLA
LOUISIANA WEATHER ROUNDUP
NATIONAL WEATHER SERVICE NEW ORLEANS LA
400 PM CDT THU JUL 24 2014

NOTE: "FAIR" INDICATES FEW OR NO CLOUDS BELOW 12,000 FEET WITH NO
      SIGNIFICANT WEATHER AND/OR OBSTRUCTIONS TO VISIBILITY.
      SKY/WX - SKY CONDITION AND SIGNIFICANT WEATHER.
      TMP - AIR TEMPERATURE.    DP   - DEWPOINT TEMPERATURE.
      RH  - RELATIVE HUMIDITY.  PRES - PRESSURE.
      HX  - HEAT INDEX.         WCI  - WIND CHILL INDEX.

*  THESE STATIONS ARE NOT NWS OR FAA STATIONS AND ARE NOT UNDER
   NWS QUALITY CONTROL.

LAZ040-048-061>063-065-066-069-242200-
SOUTHEAST LOUISIANA

CITY           SKY/WX    TMP DP  RH WIND       PRES   REMARKS
N.O. AUDUBON     N/A     78  76  93 MISG        N/A
N.O. INTL ARPT PTSUNNY   86  74  67 S3        29.96F
N.O. LAKEFRONT PTSUNNY   86  69  56 NW3       29.97F
N.O. DOWNTOWN* MOCLDY    81  72  74 S6        29.97F
SLIDELL        LGT RAIN  80  74  81 W5        29.95F
BATON ROUGE    LGT RAIN  80  75  84 NE3       29.96F
BOOTHVILLE     SUNNY     84  72  67 SW8       29.97F
BELLE CHASSE   CLOUDY    80  73  79 SE3       29.97S THUNDER
BOGALUSA*      FAIR      92  66  43 CALM      29.97F
GALLIANO*      NOT AVBL
NEW ROADS*     FAIR      89  74  60 N6        29.96F HX  97
GONZALES*      FAIR      91  71  51 NW5       29.95F HX  96
HAMMOND*       MOSUNNY   93  66  40 NE3       29.97F HX  96
HOUMA*         MOSUNNY   91  68  46 W6        29.95F HX  95
PORT FOURCHON* CLEAR     86  77  74 W10G16    29.98F HX  97

$$

LAZ041-044-053-054-242200-
SOUTHWEST LOUISIANA

CITY           SKY/WX    TMP DP  RH WIND       PRES   REMARKS
LAKE CHARLES   MOSUNNY   91  72  53 NW3       29.95F HX  98
LAFAYETTE      PTSUNNY   86  73  65 SW12      29.97F
PATTERSON      SUNNY     88  75  66 W12       30.01F HX  97
SALT POINT       N/A     90  77  65 VRB6      29.96F HX 103
NEW IBERIA     LGT RAIN  80  75  84 SW6       29.98F
CHENAULT AIRPK MOSUNNY   90  72  55 N3        29.97F HX  96

$$

LAZ027-028-242200-
CENTRAL LOUISIANA

CITY           SKY/WX    TMP DP  RH WIND       PRES   REMARKS
FORT POLK      SUNNY     87  72  60 N6        29.98F
ALEXANDRIA INT PTSUNNY   90  73  57 NW6       29.96F HX  98
ALEXANDRIA     PTSUNNY   93  72  50 VRB6      29.97F HX 101

$$

LAZ001-002-242200-
NORTHWEST LOUISIANA

CITY           SKY/WX    TMP DP  RH WIND       PRES   REMARKS
SHREVEPORT     MOSUNNY   84  70  62 NE3       30.01F
BARKSDALE AFB  SUNNY     84  70  63 W6        30.01F
DTN SHREVEPORT MOSUNNY   84  69  60 VRB3      30.01F

$$

LAZ014-016-242200-
NORTHEAST LOUISIANA

CITY           SKY/WX    TMP DP  RH WIND       PRES   REMARKS
MONROE         MOSUNNY   90  73  57 CALM      29.98F HX  98
TALLULAH       MOSUNNY   88  75  65 N8        29.97F HX  97

$$




USA.gov is the U.S. government's official web portal to all federal, state and local government web resources and services.